Location: Trebic
(49.2170°N, 15.8830°E)
Time: 07:39:44
(UTC+02:00)

Transit 4A - Pass Details

Date: 25 August 2019
Orbit: 865 x 979 km, 66.8° (Epoch: 22 September)

Event Time Altitude Azimuth Distance (km) Brightness Sun altitude
Rises 20:21:46 0° 252° (WSW) 3,676 11.9 -5.0°
Reaches altitude 10° 20:24:39 10° 263° (W) 2,731 11.4 -5.5°
Maximum altitude 20:30:17 32° 325° (NW) 1,624 9.9 -6.3°
Drops below altitude 10° 20:35:54 10° 27° (NNE) 2,709 10.3 -7.1°
Sets 20:38:46 0° 37° (NE) 3,643 10.9 -7.6°
